Flag for Germany Weather past 2 weeks in Landsberg am Lech, Bavaria, Germany

Now
57 °F

Passing clouds.


Feels Like: 54 °F
Forecast: 38 / 43 °F
Wind: 15 mph from Southwest

Location: Landsberg

Current Time: Oct 21, 2014 at 7:51:11 PM

Latest Report: Oct 21, 2014 at 7:20 PM


Visibility: N/A

Pressure: 29.71 "Hg

Humidity: 72%

Dew point: 48 °F

Location of Landsberg am LechLocation

Historic Weather in Landsberg am Lech — Graph

°F

Landsberg am Lech temperature yesterday

Maximum temperature yesterday: 70 °F (at 2:20 PM)
Minimum temperature yesterday: 54 °F (at 8:20 AM)
Average temperature yesterday: 61 °F

Past Weeks' High & Low Weather Summary

 TemperatureHumidityPressure
High75 °F (Oct 9, 2:20 PM)100% (Oct 7, 12:20 AM)30.24 "Hg (Oct 7, 12:20 AM)
Low43 °F (Oct 18, 6:20 AM)36% (Oct 9, 4:20 PM)29.74 "Hg (Oct 21, 6:20 PM)
Average57 °F82%29.97 "Hg
* Reported Oct 6 6:20 PM — Oct 21 6:20 PM, Landsberg am Lech, Weather by CustomWeather, © 2014

Note: Actual official high and low records may vary slightly from our data, if they occured in-between our weather recording intervals... More about our weather records

Advertising

Landsberg am Lech weather history for previous 24 hours

 ConditionsComfort  
Time TempWeatherWind HumidityBarometerVisibility
6:20 PM
Oct 21
59 °FPartly sunny.16 mph68%29.74 "HgN/A
5:20 PM59 °FBroken clouds.21 mph72%29.77 "HgN/A
4:20 PM61 °FBroken clouds.17 mph68%29.80 "HgN/A
3:20 PM61 °FBroken clouds.15 mph68%29.83 "HgN/A
2:20 PM63 °FBroken clouds.23 mph64%29.86 "HgN/A
1:20 PM61 °FScattered clouds.21 mph72%29.89 "HgN/A
12:20 PM59 °FScattered clouds.16 mph82%29.92 "HgN/A
11:20 AM57 °FPartly sunny.13 mph88%29.95 "HgN/A
10:20 AM55 °FPartly sunny.7 mph94%29.95 "Hg4 mi
9:50 AM54 °FFog.1 mph94%29.95 "Hg3 mi
9:20 AM52 °FFog.7 mph100%29.95 "Hg3 mi
8:58 AM52 °FFog.3 mph100%29.95 "Hg3 mi
8:20 AM52 °FDrizzle. Fog.3 mph100%29.98 "Hg3 mi
7:20 AM52 °FFog.3 mph94%29.98 "Hg3 mi
6:20 AM52 °FDrizzle. Fog.3 mph100%29.98 "Hg3 mi
5:50 AM52 °FDrizzle. Fog.5 mph100%29.98 "Hg2 mi
5:04 AM52 °FRain. Mostly cloudy.2 mph100%30.01 "Hg4 mi
4:47 AM52 °FLight rain. Mostly cloudy.3 mph100%30.01 "Hg4 mi
4:20 AM52 °FRain. Mostly cloudy.3 mph100%30.01 "Hg2 mi
3:20 AM52 °FHeavy rain. Mostly cloudy.7 mph100%30.01 "Hg2 mi
2:49 AM55 °FHeavy rain. Mostly cloudy.9 mph94%30.01 "Hg2 mi
2:20 AM57 °FHeavy rain. Fog.8 mph94%30.01 "Hg3 mi
1:20 AM57 °FRain. Overcast.8 mph94%30.01 "Hg5 mi
12:20 AM55 °FHeavy rain. Mostly cloudy.3 mph100%30.01 "Hg2 mi
11:20 PM
Oct 20
57 °FRain showers. Overcast.7 mph94%30.04 "Hg5 mi
10:48 PM57 °FRain showers. Passing clouds.7 mph94%30.07 "Hg3 mi
10:20 PM57 °FSprinkles. Passing clouds.3 mph94%30.04 "HgN/A
9:20 PM57 °FLight rain. Passing clouds.2 mph94%30.04 "HgN/A
8:20 PM57 °FPartly cloudy.8 mph94%30.07 "Hg6 mi
7:20 PM63 °FThundershowers. Passing clouds.12 mph83%30.07 "HgN/A
Weather by CustomWeather, © 2014

See weather overviewHow to use our weather pages